Location: Lombard
(41.8800°N, 88.0080°W)
Time: 01:57:28
(UTC-05:00)

Vanguard 3 - Pass Details

Date: 05 February 2023
Orbit: 508 x 3249 km, 33.4° (Epoch: 31 March)

Event Time Altitude Azimuth Distance (km) Brightness Sun altitude
Rises 23:30:09 0° 276° (W) 5,630 11.6 -62.7°
Reaches altitude 10° 23:33:46 10° 268° (W) 4,963 11.2 -62.9°
Enters shadow 23:34:15 11° 267° (W) 4,885 11.1 -62.9°
